Regional Weather Roundup
Issued by NWS

Home | Current Version | Previous Version | Graphics & Text | Print | Product List | Glossary On
Versions: 1 2 3 4 5 6 7 8 9 10 11 12 13 14 15 16 17 18 19 20 21 22 23 24 25 26 27
000
ASUS45 KTFX 242310
RWRMT
MONTANA REGIONAL WEATHER ROUNDUP
NATIONAL WEATHER SERVICE GREAT FALLS MT
500 PM MDT SUN SEP 24 2017

NOTE: "FAIR" INDICATES FEW OR NO CLOUDS BELOW 12000 FEET WITH NO
SIGNIFICANT WEATHER AND/OR OBSTRUCTIONS TO VISIBILITY.

MTZ001>007-043-250000-
WEST OF THE DIVIDE

CITY           SKY/WX    TMP DP  RH WIND       PRES   REMARKS
KALISPELL      MOSUNNY   60  38  43 VRB3      30.05F
MISSOULA       PTSUNNY   60  34  37 N10       30.05F
BUTTE          CLOUDY    49  27  42 CALM      30.07F
MULLAN PASS    CLOUDY    43  33  68 VRB3      30.11F
ANACONDA         N/A     52  27  37 N3        30.07S
DEER LODGE       N/A     54  27  35 NE7       30.08F
EUREKA           N/A     64  36  34 MISG      30.02F
HAMILTON         N/A     57  30  35 N8        30.06F
LIBBY            N/A     63  36  36 E5        30.02F
PLAINS           N/A     61  38  42 CALM      30.06F
$$

MTZ008-052>055-250000-
SOUTHWEST MONTANA

CITY           SKY/WX    TMP DP  RH WIND       PRES   REMARKS
BOZEMAN        CLOUDY    51  33  50 S9        30.08S
DILLON         PTSUNNY   53  26  35 N9        30.05S
W YELLOWSTONE    N/A    N/A N/A N/A MISG        N/A
ENNIS          CLOUDY    46  28  49 N10       30.11S
THREE FORKS      N/A     53  28  38 CALM      30.06S
TWIN BRIDGES     N/A     55  23  29 N10       30.03F
$$

MTZ009-010-012-014-046-048-049-054-250000-
EAST SLOPES AND CENTRAL MONTANA

CITY           SKY/WX    TMP DP  RH WIND       PRES   REMARKS
CUT BANK       SUNNY     58  25  28 S5        30.01F
GREAT FALLS    SUNNY     56  23  27 SE3       30.04F
MALMSTROM AFB  SUNNY     57  25  29 NE5       30.04F
HELENA         SUNNY     59  27  29 CALM      30.04S
BOWMANS CRNR     N/A     54  24  31 E7        30.02F
CHOTEAU          N/A     57  27  30 CALM      30.04F
FAIRFIELD        N/A     56  25  29 SE3       30.03F
POWER            N/A     55  25  31 S5        30.03F
RAYNESFORD     CLOUDY    55  27  34 NE9       30.05F
ULM              N/A     57  27  31 SE3       30.04F
$$

MTZ011-013-016-021-045-047-050-051-250000-
NORTH CENTRAL MONTANA

CITY           SKY/WX    TMP DP  RH WIND       PRES   REMARKS
HAVRE          CLOUDY    60  31  33 VRB6      30.04F
LEWISTOWN      PTSUNNY   50  32  50 SE8       30.08S
N BAR RANCH    CLOUDY    48  36  61 S7        30.11S
CHINOOK          N/A     59  36  41 E3        30.05F
DENTON           N/A     54  31  41 E6        30.03F
GEYSER         PTSUNNY   53  27  36 E7        30.05F
JUDITH GAP     PTSUNNY   47  35  63 S7        30.08F
WINIFRED       CLOUDY    52  33  47 E5        30.06F
$$

MTZ017>020-022>027-061-062-250000-
NORTHEAST MONTANA

CITY           SKY/WX    TMP DP  RH WIND       PRES   REMARKS
GLASGOW        CLOUDY    54  36  50 CALM      30.09F
JORDAN           N/A     50  38  63 E7        30.10F
SIDNEY           N/A    N/A N/A N/A MISG        N/A
WOLF POINT     CLOUDY    56  34  43 NE12      30.10F
MALTA          CLOUDY    57  34  41 CALM      30.08S
PLENTYWOOD       N/A     52  36  54 CALM      30.10F
POPLAR           N/A     52  37  58 E6        30.11F
SCOBEY           N/A     53  33  46 N5        30.08S
$$

MTZ028>42-056>058-250000-
SOUTHCENTRAL AND SOUTHEAST MONTANA

CITY           SKY/WX    TMP DP  RH WIND       PRES   REMARKS
BAKER          CLOUDY    45  39  79 N7        30.11F
BILLINGS       CLOUDY    51  35  54 E7        30.08F
LIVINGSTON     CLOUDY    49  34  56 E8        30.08S
MILES CITY     CLOUDY    49  37  63 CALM      30.12R
BIG TIMBER     CLOUDY    48  34  57 E6        30.11S
EKALAKA          N/A     42  37  82 NW6       30.07R
HARLOWTON      CLOUDY    49  32  52 MISG      30.08S
LAUREL           N/A     52  36  54 E7        30.09F
$$

REGIONAL REPORTS...DAKOTAS

CITY           SKY/WX    TMP DP  RH WIND       PRES   REMARKS
WILLISTON      LGT RAIN  48  42  80 CALM      30.12S
MINOT          CLOUDY    50  45  83 NW10      30.06R
DICKINSON      CLOUDY    46  42  86 NW10      30.08S
BEACH          CLOUDY    45  41  87 N12       30.14R
CROSBY         CLOUDY    50  41  71 NW5       30.10F
TIOGA          CLOUDY    46  46 100 NW9       30.11S
BISMARCK       CLOUDY    52  47  83 NW9       30.06R
GRAND FORKS    CLOUDY    53  52  96 NW15      29.91R
FARGO          CLOUDY    54  53  97 NW12      29.92R
BUFFALO SD       N/A     48  41  76 NW10      30.03R
RAPID CITY     CLOUDY    50  41  71 N15       30.07R
$$

REGIONAL REPORTS...WYOMING/IDAHO/WASHINGTON

CITY           SKY/WX    TMP DP  RH WIND       PRES   REMARKS
GILLETTE       CLOUDY    43  39  86 N13       30.09S
SHERIDAN       CLOUDY    47  39  74 NE6       30.11R
BUFFALO WY     CLOUDY    43  35  73 NE8       30.10S
CODY           CLOUDY    45  33  63 N7        30.09S
IDAHO FALLS    PTSUNNY   56  33  42 NW18G24   29.99R
SALMON         CLOUDY    56  26  31 CALM      30.06S
BOISE          MOSUNNY   65  28  24 W9G17     29.99F
SPOKANE        PTSUNNY   66  37  34 VRB3      30.06F
$$

REGIONAL REPORTS...ALBERTA

CITY           SKY/WX    TMP DP  RH WIND       PRES   REMARKS
EDMONTON       CLOUDY    61  41  48 SW8       29.91F
CALGARY        PTSUNNY   61  34  36 S8        29.96F
LETHBRIDGE     MOSUNNY   61  25  25 E7G20     29.98F
MEDICINE HAT   MOSUNNY   61  34  36 VRB8      30.00F
$$

REGIONAL REPORTS...SASKATCHEWAN

CITY           SKY/WX    TMP DP  RH WIND       PRES   REMARKS
SWIFT CURRENT    N/A     54  32  43 SW6       30.05S
REGINA         PTSUNNY   54  32  43 N6        30.09R
SASKATOON      PTSUNNY   57  37  47 S6        30.07S
$$




USA.gov is the U.S. government's official web portal to all federal, state and local government web resources and services.